sat.trackr.live / text

‹ back to catalog

KUIPER-00459

NORAD 68872 · 2026-095J

PAYLOAD ACTIVE UNKNOWN

§ Identity

Operator
Country
US
Launch date
2026-04-28
Launch site
AFETR
Launch vehicle
Mass (kg)
RCS (m²)

External: N2YO · Heavens-Above · Gunter

§ Orbital elements

Epoch: 2026-05-24T23:18:47.528352Z

Period
93.77 min
Inclination
51.8730°
Eccentricity
0.0010743
Mean motion
15.35612159 rev/d
Perigee alt
451.8 km
Apogee alt
466.4 km
Semi-major
6,837.2 km
B*
5.8611e-4
RAAN
354.9168°
Arg perigee
216.6826°
Mean anomaly
143.3425°
Rev number
415

§ Raw data

KUIPER-004591 68872U 26095J   26144.97138343  .00020308  00000+0  58611-3 0  99942 68872  51.8730 354.9168 0010743 216.6826 143.3425 15.35612159  4159

JSON: /api/v1/satellites/68872 · /tle

For live sub-satellite position, see the globe view (requires WebGL).

§ Visibility from observer

Set your observer location to see the next 7 days of passes ≥ 10°. The values pass through the URL so the page stays shareable.

No JS? Fill the form by hand. The geolocation button needs JavaScript.